Regional Weather Roundup
Issued by NWS Midland/Odessa, TX

Home | Current Version | Previous Version | Text Only | Print | Product List | Glossary On
Versions: 1 2 3 4 5 6 7 8 9 10 11 12 13 14 15 16 17 18 19 20 21 22 23 24 25 26 27 28 29 30 31 32 33 34 35 36 37 38 39 40 41 42 43 44 45 46 47 48 49 50
000
ASUS44 KMAF 211101
RWRMAF
MIDLAND AREA WEATHER ROUNDUP
NATIONAL WEATHER SERVICE MIDLAND TX
600 AM CDT THU SEP 21 2017

...IN SOUTHWEST TEXAS AND SOUTHEAST NEW MEXICO...

CITY           SKY/WX    TMP DP  RH WIND       PRES   REMARKS
ALPINE         CLEAR     68  52  56 W6        30.09S
ANDREWS        FAIR      73  64  71 S8        29.92F
ARTESIA        CLEAR     66  41  39 CALM      29.92S
BIG SPRING     CLEAR     77  64  64 S12       29.93R
CARLSBAD       CLEAR     70  48  45 W10       29.89S
DRYDEN           N/A     73  63  70 NE7       29.90S
FORT STOCKTON  CLEAR     74  53  48 S7        29.92F
GUAD PASS      PTCLDY    69  46  43 W9        30.08R
HOBBS          CLEAR     64  55  72 SW8       29.95R
MARFA          CLEAR     58  52  80 N3        30.10R
MIDLAND AIRPK  CLEAR     79  63  57 S8        29.92R
MIDLAND INTL   CLEAR     79  63  57 S10       29.90F
ODESSA         CLEAR     77  64  64 S14       29.92S
PECOS          CLEAR     66  54  63 CALM      29.89S
PRESIDIO       FAIR      77  56  49 E6        29.97S
SEMINOLE       CLEAR     67  59  76 S5        29.94R
SNYDER         CLEAR     74  65  72 S9        29.91S
WINK           CLEAR     70  55  59 SE7       29.89S
$$
...OTHER STATIONS IN TEXAS...

CITY           SKY/WX    TMP DP  RH WIND       PRES   REMARKS
ABILENE        CLEAR     75  70  84 S9        29.91R
AMARILLO       CLEAR     61  51  70 S13       29.90S
AUSTIN         PTCLDY    78  76  93 S7        29.92S
BROWNSVILLE    PTCLDY    79  79 100 SE6       29.88R
CORPUS CHRISTI PTCLDY    79  77  94 SE7       29.89S
DALLAS FTW     CLOUDY    80  73  79 S18       29.90R
DEL RIO        CLOUDY    79  73  82 E8        29.86S
EL PASO        CLEAR     76  48  37 SW8       29.96S
HOUSTON INT    PTCLDY    77  76  96 S3        29.94R
LUBBOCK        PTCLDY    70  61  73 S10       29.92R
SAN ANGELO     CLEAR     77  69  76 S9G17     29.91R
SAN ANTONIO    MOCLDY    80  73  79 SE10      29.94S
WACO           CLOUDY    79  74  84 S13       29.93R
WICHITA FALLS  NOT AVBL
$$
...OTHER LOCATIONS IN NEW MEXICO...

CITY           SKY/WX    TMP DP  RH WIND       PRES   REMARKS
ALAMOGORDO     CLEAR     64  41  42 S7        29.97S
ALBUQUERQUE    CLEAR     62  33  33 SE3       30.03S
CANNON AFB     NOT AVBL
CLOVIS         CLEAR     58  46  64 W12       29.94F
HOLLOMAN AFB   NOT AVBL
ROSWELL        CLEAR     63  41  44 SW5       29.92S
RUIDOSO        CLEAR     61  39  44 W5        30.14S
SANTA FE       CLEAR     48  29  47 N5        30.07S
TRUTH OR CONSE CLEAR     64  38  38 W6        30.00R
TUCUMCARI      CLEAR     60  44  55 W3        29.88F
$$



USA.gov is the U.S. government's official web portal to all federal, state and local government web resources and services.